Flag for Spain Weather past 2 weeks in Sevilla, Spain

Now
64 °F

Scattered clouds.


Feels Like: 64 °F
Forecast: 52 / 69 °F
Wind: 13 mph from Southwest

Location: Sevilla / San Pablo

Current Time: Apr 26, 2015 at 11:10:09 AM

Latest Report: Apr 26, 2015 at 10:30 AM


Visibility: N/A

Pressure: 29.89 "Hg

Humidity: 78%

Dew point: 57 °F

Location of SevillaLocation

Historic Weather in Sevilla — Graph

°F

Sevilla temperature yesterday

Maximum temperature yesterday: 70 °F (at 3:00 PM)
Minimum temperature yesterday: 59 °F (at 12:30 AM)
Average temperature yesterday: 64 °F

Past Weeks' High & Low Weather Summary

 TemperatureHumidityPressure
High82 °F (Apr 23, 7:00 PM)100% (Apr 12, 4:00 AM)30.24 "Hg (Apr 12, 4:00 AM)
Low50 °F (Apr 12, 6:30 AM)21% (Apr 20, 5:30 PM)29.86 "Hg (Apr 26, 7:00 AM)
Average64 °F66%30.04 "Hg
* Reported Apr 11 10:00 AM — Apr 26 10:00 AM, Sevilla, Weather by CustomWeather, © 2015

Note: Actual official high and low records may vary slightly from our data, if they occured in-between our weather recording intervals... More about our weather records

Advertising

Sevilla weather history for previous 24 hours

 ConditionsComfort  
Time TempWeatherWind HumidityBarometerVisibility
10:00 AM
Sun, Apr 26
64 °FScattered clouds.12 mph83%29.89 "HgN/A
9:30 AM63 °FScattered clouds.9 mph88%29.89 "HgN/A
9:00 AM61 °FScattered clouds.8 mph94%29.89 "HgN/A
8:30 AM61 °FPassing clouds.3 mph94%29.89 "HgN/A
8:00 AM61 °FPassing clouds.3 mph94%29.89 "HgN/A
7:30 AM59 °FPassing clouds.7 mph94%29.89 "HgN/A
7:00 AM59 °FPassing clouds.10 mph100%29.86 "HgN/A
6:30 AM61 °FPassing clouds.6 mph94%29.89 "HgN/A
6:00 AM61 °FPassing clouds.5 mph94%29.89 "HgN/A
5:30 AM61 °FPassing clouds.8 mph94%29.92 "HgN/A
5:00 AM61 °FLight rain. Passing clouds.5 mph94%29.92 "HgN/A
4:30 AM61 °FPassing clouds.3 mph94%29.92 "HgN/A
4:00 AM61 °FPassing clouds.7 mph94%29.95 "HgN/A
3:30 AM61 °FPassing clouds.9 mph94%29.95 "HgN/A
1:00 AM63 °FPassing clouds.10 mph88%29.98 "HgN/A
12:30 AM63 °FPassing clouds.8 mph88%29.98 "HgN/A
12:00 AM63 °FPassing clouds.9 mph83%29.98 "HgN/A
11:00 PM
Sat, Apr 25
63 °FPassing clouds.9 mph83%30.01 "HgN/A
10:30 PM63 °FPassing clouds.12 mph83%30.01 "HgN/A
10:00 PM63 °FPassing clouds.13 mph83%29.98 "HgN/A
9:30 PM64 °FPassing clouds.13 mph78%29.98 "HgN/A
9:00 PM64 °FPassing clouds.14 mph78%29.98 "HgN/A
8:30 PM66 °FPassing clouds.12 mph68%29.95 "HgN/A
8:00 PM66 °FPassing clouds.13 mph73%29.98 "HgN/A
7:30 PM68 °FPassing clouds.14 mph69%29.98 "HgN/A
7:00 PM68 °FScattered clouds.13 mph69%29.98 "HgN/A
6:30 PM68 °FScattered clouds.13 mph69%29.98 "HgN/A
6:00 PM68 °FScattered clouds.12 mph69%29.98 "HgN/A
5:30 PM68 °FScattered clouds.13 mph69%29.98 "HgN/A
5:00 PM68 °FScattered clouds.14 mph69%29.98 "HgN/A
4:30 PM68 °FScattered clouds.15 mph69%30.01 "HgN/A
4:00 PM68 °FScattered clouds.14 mph69%30.01 "HgN/A
3:30 PM70 °FScattered clouds.7 mph69%30.01 "HgN/A
3:00 PM70 °FScattered clouds.9 mph64%30.04 "HgN/A
2:30 PM66 °FBroken clouds.9 mph78%30.04 "HgN/A
2:00 PM66 °FPartly sunny.9 mph73%30.04 "HgN/A
1:30 PM66 °FPartly sunny.9 mph78%30.04 "HgN/A
1:00 PM66 °FPartly sunny.8 mph78%30.04 "HgN/A
12:30 PM66 °FBroken clouds.1 mph78%30.04 "HgN/A
12:00 PM64 °FBroken clouds.3 mph83%30.07 "HgN/A
11:30 AM64 °FBroken clouds.3 mph83%30.07 "HgN/A
11:00 AM64 °FPartly sunny.3 mph83%30.07 "HgN/A
Weather by CustomWeather, © 2015

See weather overviewHow to use our weather pages